FW5872 Weather Reports


time (UTC)temp
C
wind
direction
speed
KPH
gust
KPH
rain 1hr
cm
rain 24hr
cm
rain mn
cm
humidity
%
barometer
mb
20260505111535 16 274 1.6 4.8 0.00 0.00 0.00 63 1012.6
20260505101535 13 0 0.0 0.0 0.00 0.00 0.00 72 1011.8
20260505100038 12 0 0.0 0.0 0.00 0.00 0.00 77 1011.9
20260505094528 12 0 0.0 0.0 0.00 0.00 0.00 78 1011.8
20260505093031 11 0 0.0 0.0 0.00 0.00 0.00 81 1011.6
20260505091534 12 0 0.0 0.0 0.00 0.00 0.00 81 1011.7
20260505090027 12 0 0.0 0.0 0.00 0.00 0.00 81 1011.5
20260505084528 12 0 0.0 0.0 0.00 0.00 0.00 80 1011.6
20260505083039 12 0 0.0 0.0 0.00 0.00 0.00 79 1011.6
20260505081532 12 0 0.0 0.0 0.00 0.00 0.00 79 1011.6
20260505080044 12 0 0.0 0.0 0.00 0.00 0.00 78 1011.5
20260505074529 13 0 0.0 0.0 0.00 0.00 0.00 77 1011.5
20260505073038 13 0 0.0 0.0 0.00 0.00 0.00 77 1011.3
20260505071538 13 0 0.0 0.0 0.00 0.00 0.00 76 1011.3
20260505070030 13 0 0.0 0.0 0.00 0.00 0.00 75 1011.2
20260505064531 13 0 0.0 0.0 0.00 0.00 0.00 76 1011.1
20260505063042 13 0 0.0 0.0 0.00 0.00 0.00 76 1011.3
20260505061534 14 0 0.0 0.0 0.00 0.00 0.00 74 1011.3
20260505060029 15 0 0.0 0.0 0.00 0.00 0.00 72 1011.3
20260505054541 15 0 0.0 0.0 0.00 0.00 0.00 70 1011.3
20260505053028 15 0 0.0 1.6 0.00 0.00 0.00 70 1011.2
20260505051538 16 0 0.0 1.6 0.00 0.00 0.00 68 1011.3
20260505041544 17 0 0.0 0.0 0.00 0.00 0.00 61 1011.5
20260505040030 17 0 0.0 1.6 0.00 0.00 0.00 61 1011.4
20260505034528 17 0 0.0 1.6 0.00 0.00 0.00 60 1011.2
20260505033028 17 0 0.0 1.6 0.00 0.00 0.00 59 1011.3
20260505031534 18 0 0.0 1.6 0.00 0.00 0.00 57 1011.3
20260505030028 19 0 0.0 3.2 0.00 0.00 0.00 54 1011.2
20260505024531 19 278 1.6 6.4 0.00 0.00 0.00 53 1011.2
20260505023031 20 281 1.6 4.8 0.00 0.00 0.00 52 1011.2
20260505021530 19 266 1.6 4.8 0.00 0.00 0.00 52 1011.2
20260505020038 18 0 0.0 1.6 0.00 0.00 0.00 54 1011.0
20260505014529 18 0 0.0 1.6 0.00 0.00 0.00 53 1010.9
20260505013032 19 0 0.0 1.6 0.00 0.00 0.00 53 1010.8
20260505011534 20 0 0.0 1.6 0.00 0.00 0.00 51 1010.7
20260505010044 20 0 0.0 1.6 0.00 0.00 0.00 48 1010.5
20260505004528 21 0 0.0 1.6 0.00 0.00 0.00 47 1010.6
20260505003030 21 283 0.0 4.8 0.00 0.00 0.00 45 1010.5
20260505001535 22 0 0.0 8.0 0.00 0.00 0.00 44 1010.4
20260505000039 22 276 1.6 4.8 0.00 0.00 0.00 43 1010.3
20260504234533 22 34 3.2 6.4 0.00 0.00 0.00 43 1010.3
20260504233031 22 0 1.6 8.0 0.00 0.00 0.00 42 1010.1
20260504231532 22 326 1.6 8.0 0.00 0.00 0.00 41 1010.0
20260504230030 22 354 1.6 9.7 0.00 0.00 0.00 40 1010.0
20260504224535 23 278 0.0 8.0 0.00 0.00 0.00 40 1010.1
20260504223032 23 249 4.8 12.9 0.00 0.00 0.00 39 1010.0
20260504221530 23 32 1.6 14.5 0.00 0.00 0.00 39 1009.9
20260504220030 23 92 1.6 8.0 0.00 0.00 0.00 38 1009.9
20260504214539 24 20 1.6 8.0 0.00 0.00 0.00 38 1010.0
20260504213030 24 281 4.8 9.7 0.00 0.00 0.00 37 1009.9
20260504211530 24 69 0.0 8.0 0.00 0.00 0.00 36 1009.8
20260504210030 24 297 1.6 11.3 0.00 0.00 0.00 35 1010.0
20260504204530 24 286 3.2 9.7 0.00 0.00 0.00 36 1009.8
20260504203030 24 283 3.2 8.0 0.00 0.00 0.00 35 1010.1
20260504201529 25 281 0.0 8.0 0.00 0.00 0.00 38 1010.1
20260504200035 24 260 4.8 9.7 0.00 0.00 0.00 35 1010.6
20260504194531 24 288 1.6 8.0 0.00 0.00 0.00 36 1010.6
20260504193030 25 273 1.6 11.3 0.00 0.00 0.00 36 1010.8
20260504191533 25 285 3.2 9.7 0.00 0.00 0.00 36 1011.0
20260504190028 23 285 4.8 9.7 0.00 0.00 0.00 37 1011.4
20260504184536 23 266 3.2 8.0 0.00 0.00 0.00 38 1011.9
20260504183036 23 287 3.2 11.3 0.00 0.00 0.00 36 1012.1
20260504181532 23 294 4.8 11.3 0.00 0.00 0.00 36 1012.2
20260504180030 23 269 4.8 11.3 0.00 0.00 0.00 38 1012.4
20260504174528 22 283 3.2 11.3 0.00 0.00 0.00 39 1012.6
20260504173030 22 258 1.6 9.7 0.00 0.00 0.00 42 1012.9
20260504171530 22 358 1.6 11.3 0.00 0.00 0.00 39 1013.0